#Datum;Uhrzeit;WR;Pac;DaySum;Status;WR;Pac;DaySum;Status;Pdc1;Udc;Temp;WR;Pac;DaySum;Status;Pdc1;Udc;Temp;WR;Pac;DaySum;Status;Pdc1;Udc;Temp;WR;Pac;DaySum;Status;Pdc1;Pdc2;Udc1;Udc2;Temp;WR;Pac;DaySum;Status;Pdc1;Pdc2;Udc1;Udc2;Temp;WR;Pac;DaySum;Status;Pdc1;Udc;Temp;WR;Pac;DaySum;Status;Pdc1;Udc;Temp;WR;Pac;DaySum;Status;Pdc1;Udc;Temp
24.01.18;23:55:00;1;399;11123;0;2;0;11508;0;0;0;0;3;0;7275;0;0;0;0;4;0;7872;0;0;0;0;5;0;22058;0;0;0;0;0;0;6;0;16407;0;0;0;0;0;0;7;0;15931;0;0;0;0;8;0;15651;0;0;0;0;9;0;8314;0;0;0;0
24.01.18;23:50:00;1;412;11089;0;2;0;11508;0;0;0;0;3;0;7275;0;0;0;0;4;0;7872;0;0;0;0;5;0;22058;0;0;0;0;0;0;6;0;16407;0;0;0;0;0;0;7;0;15931;0;0;0;0;8;0;15651;0;0;0;0;9;0;8314;0;0;0;0
24.01.18;23:45:00;1;622;11055;0;2;0;11508;0;0;0;0;3;0;7275;0;0;0;0;4;0;7872;0;0;0;0;5;0;22058;0;0;0;0;0;0;6;0;16407;0;0;0;0;0;0;7;0;15931;0;0;0;0;8;0;15651;0;0;0;0;9;0;8314;0;0;0;0
24.01.18;23:40:00;1;397;10989;0;2;0;11508;0;0;0;0;3;0;7275;0;0;0;0;4;0;7872;0;0;0;0;5;0;22058;0;0;0;0;0;0;6;0;16407;0;0;0;0;0;0;7;0;15931;0;0;0;0;8;0;15651;0;0;0;0;9;0;8314;0;0;0;0
24.01.18;23:35:00;1;411;10956;0;2;0;11508;0;0;0;0;3;0;7275;0;0;0;0;4;0;7872;0;0;0;0;5;0;22058;0;0;0;0;0;0;6;0;16407;0;0;0;0;0;0;7;0;15931;0;0;0;0;8;0;15651;0;0;0;0;9;0;8314;0;0;0;0
24.01.18;23:30:00;1;516;10921;0;2;0;11508;0;0;0;0;3;0;7275;0;0;0;0;4;0;7872;0;0;0;0;5;0;22058;0;0;0;0;0;0;6;0;16407;0;0;0;0;0;0;7;0;15931;0;0;0;0;8;0;15651;0;0;0;0;9;0;8314;0;0;0;0
24.01.18;23:25:00;1;1028;10877;0;2;0;11508;0;0;0;0;3;0;7275;0;0;0;0;4;0;7872;0;0;0;0;5;0;22058;0;0;0;0;0;0;6;0;16407;0;0;0;0;0;0;7;0;15931;0;0;0;0;8;0;15651;0;0;0;0;9;0;8314;0;0;0;0
24.01.18;23:20:00;1;716;10790;0;2;0;11508;0;0;0;0;3;0;7275;0;0;0;0;4;0;7872;0;0;0;0;5;0;22058;0;0;0;0;0;0;6;0;16407;0;0;0;0;0;0;7;0;15931;0;0;0;0;8;0;15651;0;0;0;0;9;0;8314;0;0;0;0
24.01.18;23:15:00;1;714;10731;0;2;0;11508;0;0;0;0;3;0;7275;0;0;0;0;4;0;7872;0;0;0;0;5;0;22058;0;0;0;0;0;0;6;0;16407;0;0;0;0;0;0;7;0;15931;0;0;0;0;8;0;15651;0;0;0;0;9;0;8314;0;0;0;0
24.01.18;23:10:00;1;1086;10671;0;2;0;11508;0;0;0;0;3;0;7275;0;0;0;0;4;0;7872;0;0;0;0;5;0;22058;0;0;0;0;0;0;6;0;16407;0;0;0;0;0;0;7;0;15931;0;0;0;0;8;0;15651;0;0;0;0;9;0;8314;0;0;0;0
24.01.18;23:05:00;1;675;10582;0;2;0;11508;0;0;0;0;3;0;7275;0;0;0;0;4;0;7872;0;0;0;0;5;0;22058;0;0;0;0;0;0;6;0;16407;0;0;0;0;0;0;7;0;15931;0;0;0;0;8;0;15651;0;0;0;0;9;0;8314;0;0;0;0
24.01.18;23:00:00;1;683;10526;0;2;0;11508;0;0;0;0;3;0;7275;0;0;0;0;4;0;7872;0;0;0;0;5;0;22058;0;0;0;0;0;0;6;0;16407;0;0;0;0;0;0;7;0;15931;0;0;0;0;8;0;15651;0;0;0;0;9;0;8314;0;0;0;0
24.01.18;22:55:00;1;607;10469;0;2;0;11508;0;0;0;0;3;0;7275;0;0;0;0;4;0;7872;0;0;0;0;5;0;22058;2;0;0;0;0;0;6;0;16407;2;0;0;0;0;0;7;0;15931;0;0;0;0;8;0;15651;0;0;0;0;9;0;8314;0;0;0;0
24.01.18;22:50:00;1;931;10399;0;2;0;11508;0;0;0;0;3;0;7275;0;0;0;0;4;0;7872;0;0;0;0;5;0;22058;2;0;0;0;0;0;6;0;16407;2;0;0;0;0;0;7;0;15931;0;0;0;0;8;0;15651;0;0;0;0;9;0;8314;0;0;0;0
24.01.18;22:45:00;1;565;10343;0;2;0;11508;0;0;0;0;3;0;7275;0;0;0;0;4;0;7872;0;0;0;0;5;0;22058;2;0;0;0;0;0;6;0;16407;2;0;0;0;0;0;7;0;15931;0;0;0;0;8;0;15651;0;0;0;0;9;0;8314;0;0;0;0
24.01.18;22:40:00;1;590;10294;0;2;0;11508;0;0;0;0;3;0;7275;0;0;0;0;4;0;7872;0;0;0;0;5;0;22058;2;0;0;0;0;0;6;0;16407;2;0;0;0;0;0;7;0;15931;0;0;0;0;8;0;15651;0;0;0;0;9;0;8314;0;0;0;0
24.01.18;22:35:00;1;1373;10246;0;2;0;11508;0;0;0;0;3;0;7275;0;0;0;0;4;0;7872;0;0;0;0;5;0;22058;2;0;0;0;0;0;6;0;16407;2;0;0;0;0;0;7;0;15931;0;0;0;0;8;0;15651;0;0;0;0;9;0;8314;0;0;0;0
24.01.18;22:30:00;1;546;10170;0;2;0;11508;0;0;0;0;3;0;7275;0;0;0;0;4;0;7872;0;0;0;0;5;0;22058;2;0;0;0;0;0;6;0;16407;2;0;0;0;0;0;7;0;15931;0;0;0;0;8;0;15651;0;0;0;0;9;0;8314;0;0;0;0
24.01.18;22:25:00;1;552;10124;0;2;0;11508;0;0;0;0;3;0;7275;0;0;0;0;4;0;7872;0;0;0;0;5;0;22058;2;0;0;0;0;0;6;0;16407;2;0;0;0;0;0;7;0;15931;0;0;0;0;8;0;15651;0;0;0;0;9;0;8314;0;0;0;0
24.01.18;22:20:00;1;987;10077;0;2;0;11508;0;0;0;0;3;0;7275;0;0;0;0;4;0;7872;0;0;0;0;5;0;22058;2;0;0;0;0;0;6;0;16407;2;0;0;0;0;0;7;0;15931;0;0;0;0;8;0;15651;0;0;0;0;9;0;8314;0;0;0;0
24.01.18;22:15:00;1;591;9999;0;2;0;11508;0;0;0;0;3;0;7275;0;0;0;0;4;0;7872;0;0;0;0;5;0;22058;2;0;0;0;0;0;6;0;16407;2;0;0;0;0;0;7;0;15931;0;0;0;0;8;0;15651;0;0;0;0;9;0;8314;0;0;0;0
24.01.18;22:10:00;1;556;9950;0;2;0;11508;0;0;0;0;3;0;7275;0;0;0;0;4;0;7872;0;0;0;0;5;0;22058;2;0;0;0;0;0;6;0;16407;2;0;0;0;0;0;7;0;15931;0;0;0;0;8;0;15651;0;0;0;0;9;0;8314;0;0;0;0
24.01.18;22:05:00;1;546;9904;0;2;0;11508;0;0;0;0;3;0;7275;0;0;0;0;4;0;7872;0;0;0;0;5;0;22058;2;0;0;0;0;0;6;0;16407;2;0;0;0;0;0;7;0;15931;0;0;0;0;8;0;15651;0;0;0;0;9;0;8314;0;0;0;0
24.01.18;22:00:00;1;761;9843;0;2;0;11508;0;0;0;0;3;0;7275;0;0;0;0;4;0;7872;0;0;0;0;5;0;22058;2;0;0;0;0;0;6;0;16407;2;0;0;0;0;0;7;0;15931;0;0;0;0;8;0;15651;0;0;0;0;9;0;8314;0;0;0;0
24.01.18;21:55:00;1;556;9780;0;2;0;11508;0;0;0;0;3;0;7275;0;0;0;0;4;0;7872;0;0;0;0;5;0;22058;2;0;0;0;0;0;6;0;16407;2;0;0;0;0;0;7;0;15931;0;0;0;0;8;0;15651;0;0;0;0;9;0;8314;0;0;0;0
24.01.18;21:50:00;1;549;9734;0;2;0;11508;0;0;0;0;3;0;7275;0;0;0;0;4;0;7872;0;0;0;0;5;0;22058;2;0;0;0;0;0;6;0;16407;2;0;0;0;0;0;7;0;15931;0;0;0;0;8;0;15651;0;0;0;0;9;0;8314;0;0;0;0
24.01.18;21:45:00;1;962;9688;0;2;0;11508;0;0;0;0;3;0;7275;0;0;0;0;4;0;7872;0;0;0;0;5;0;22058;2;0;0;0;0;0;6;0;16407;2;0;0;0;0;0;7;0;15931;0;0;0;0;8;0;15651;0;0;0;0;9;0;8314;0;0;0;0
24.01.18;21:40:00;1;553;9612;0;2;0;11508;0;0;0;0;3;0;7275;0;0;0;0;4;0;7872;0;0;0;0;5;0;22058;2;0;0;0;0;0;6;0;16407;2;0;0;0;0;0;7;0;15931;0;0;0;0;8;0;15651;0;0;0;0;9;0;8314;0;0;0;0
24.01.18;21:35:00;1;619;9566;0;2;0;11508;0;0;0;0;3;0;7275;0;0;0;0;4;0;7872;0;0;0;0;5;0;22058;2;0;0;0;0;0;6;0;16407;2;0;0;0;0;0;7;0;15931;0;0;0;0;8;0;15651;0;0;0;0;9;0;8314;0;0;0;0
24.01.18;21:30:00;1;1182;9514;0;2;0;11508;0;0;0;0;3;0;7275;0;0;0;0;4;0;7872;0;0;0;0;5;0;22058;2;0;0;0;0;0;6;0;16407;2;0;0;0;0;0;7;0;15931;0;0;0;0;8;0;15651;0;0;0;0;9;0;8314;0;0;0;0
24.01.18;21:25:00;1;1501;9428;0;2;0;11508;0;0;0;0;3;0;7275;0;0;0;0;4;0;7872;0;0;0;0;5;0;22058;2;0;0;0;0;0;6;0;16407;2;0;0;0;0;0;7;0;15931;0;0;0;0;8;0;15651;0;0;0;0;9;0;8314;0;0;0;0
24.01.18;21:20:00;1;659;9316;0;2;0;11508;0;0;0;0;3;0;7275;0;0;0;0;4;0;7872;0;0;0;0;5;0;22058;2;0;0;0;0;0;6;0;16407;2;0;0;0;0;0;7;0;15931;0;0;0;0;8;0;15651;0;0;0;0;9;0;8314;0;0;0;0
24.01.18;21:15:00;1;656;9261;0;2;0;11508;0;0;0;0;3;0;7275;0;0;0;0;4;0;7872;0;0;0;0;5;0;22058;2;0;0;0;0;0;6;0;16407;2;0;0;0;0;0;7;0;15931;0;0;0;0;8;0;15651;0;0;0;0;9;0;8314;0;0;0;0
24.01.18;21:10:00;1;835;9188;0;2;0;11508;0;0;0;0;3;0;7275;0;0;0;0;4;0;7872;0;0;0;0;5;0;22058;2;0;0;0;0;0;6;0;16407;2;0;0;0;0;0;7;0;15931;0;0;0;0;8;0;15651;0;0;0;0;9;0;8314;0;0;0;0
24.01.18;21:05:00;1;684;9125;0;2;0;11508;0;0;0;0;3;0;7275;0;0;0;0;4;0;7872;0;0;0;0;5;0;22058;2;0;0;0;0;0;6;0;16407;2;0;0;0;0;0;7;0;15931;0;0;0;0;8;0;15651;0;0;0;0;9;0;8314;0;0;0;0
24.01.18;21:00:00;1;593;9068;0;2;0;11508;0;0;0;0;3;0;7275;0;0;0;0;4;0;7872;0;0;0;0;5;0;22058;2;0;0;0;0;0;6;0;16407;2;0;0;0;0;0;7;0;15931;0;0;0;0;8;0;15651;0;0;0;0;9;0;8314;0;0;0;0
24.01.18;20:55:00;1;1361;9019;0;2;0;11508;0;0;0;0;3;0;7275;0;0;0;0;4;0;7872;0;0;0;0;5;0;22058;2;0;0;0;0;0;6;0;16407;2;0;0;0;0;0;7;0;15931;0;0;0;0;8;0;15651;0;0;0;0;9;0;8314;0;0;0;0
24.01.18;20:50:00;1;571;8943;0;2;0;11508;0;0;0;0;3;0;7275;0;0;0;0;4;0;7872;0;0;0;0;5;0;22058;2;0;0;0;0;0;6;0;16407;2;0;0;0;0;0;7;0;15931;0;0;0;0;8;0;15651;0;0;0;0;9;0;8314;0;0;0;0
24.01.18;20:45:00;1;442;8896;0;2;0;11508;0;0;0;0;3;0;7275;0;0;0;0;4;0;7872;0;0;0;0;5;0;22058;2;0;0;0;0;0;6;0;16407;2;0;0;0;0;0;7;0;15931;0;0;0;0;8;0;15651;0;0;0;0;9;0;8314;0;0;0;0
24.01.18;20:40:00;1;858;8859;0;2;0;11508;0;0;0;0;3;0;7275;0;0;0;0;4;0;7872;0;0;0;0;5;0;22058;2;0;0;0;0;0;6;0;16407;2;0;0;0;0;0;7;0;15931;0;0;0;0;8;0;15651;0;0;0;0;9;0;8314;0;0;0;0
24.01.18;20:35:00;1;399;8796;0;2;0;11508;0;0;0;0;3;0;7275;0;0;0;0;4;0;7872;0;0;0;0;5;0;22058;2;0;0;0;0;0;6;0;16407;2;0;0;0;0;0;7;0;15931;0;0;0;0;8;0;15651;0;0;0;0;9;0;8314;0;0;0;0
24.01.18;20:30:00;1;440;8763;0;2;0;11508;0;0;0;0;3;0;7275;0;0;0;0;4;0;7872;0;0;0;0;5;0;22058;2;0;0;0;0;0;6;0;16407;2;0;0;0;0;0;7;0;15931;0;0;0;0;8;0;15651;0;0;0;0;9;0;8314;0;0;0;0
24.01.18;20:25:00;1;645;8726;0;2;0;11508;0;0;0;0;3;0;7275;0;0;0;0;4;0;7872;0;0;0;0;5;0;22058;2;0;0;0;0;0;6;0;16407;2;0;0;0;0;0;7;0;15931;0;0;0;0;8;0;15651;0;0;0;0;9;0;8314;0;0;0;0
24.01.18;20:20:00;1;436;8659;0;2;0;11508;0;0;0;0;3;0;7275;0;0;0;0;4;0;7872;0;0;0;0;5;0;22058;2;0;0;0;0;0;6;0;16407;2;0;0;0;0;0;7;0;15931;0;0;0;0;8;0;15651;0;0;0;0;9;0;8314;0;0;0;0
24.01.18;20:15:00;1;401;8623;0;2;0;11508;0;0;0;0;3;0;7275;0;0;0;0;4;0;7872;0;0;0;0;5;0;22058;2;0;0;0;0;0;6;0;16407;2;0;0;0;0;0;7;0;15931;0;0;0;0;8;0;15651;0;0;0;0;9;0;8314;0;0;0;0
24.01.18;20:10:00;1;439;8589;0;2;0;11508;0;0;0;0;3;0;7275;0;0;0;0;4;0;7872;0;0;0;0;5;0;22058;2;0;0;0;0;0;6;0;16407;2;0;0;0;0;0;7;0;15931;0;0;0;0;8;0;15651;0;0;0;0;9;0;8314;0;0;0;0
24.01.18;20:05:00;1;843;8552;0;2;0;11508;0;0;0;0;3;0;7275;0;0;0;0;4;0;7872;0;0;0;0;5;0;22058;2;0;0;0;0;0;6;0;16407;2;0;0;0;0;0;7;0;15931;0;0;0;0;8;0;15651;0;0;0;0;9;0;8314;0;0;0;0
24.01.18;20:00:00;1;242;8485;0;2;0;11508;0;0;0;0;3;0;7275;0;0;0;0;4;0;7872;0;0;0;0;5;0;22058;2;0;0;0;0;0;6;0;16407;2;0;0;0;0;0;7;0;15931;0;0;0;0;8;0;15651;0;0;0;0;9;0;8314;0;0;0;0
24.01.18;19:55:00;1;188;8466;0;2;0;11508;0;0;0;0;3;0;7275;0;0;0;0;4;0;7872;0;0;0;0;5;0;22058;2;0;0;0;0;0;6;0;16407;2;0;0;0;0;0;7;0;15931;0;0;0;0;8;0;15651;0;0;0;0;9;0;8314;0;0;0;0
24.01.18;19:50:00;1;547;8450;0;2;0;11508;0;0;0;0;3;0;7275;0;0;0;0;4;0;7872;0;0;0;0;5;0;22058;2;0;0;0;0;0;6;0;16407;2;0;0;0;0;0;7;0;15931;0;0;0;0;8;0;15651;0;0;0;0;9;0;8314;0;0;0;0
24.01.18;19:45:00;1;187;8406;0;2;0;11508;0;0;0;0;3;0;7275;0;0;0;0;4;0;7872;0;0;0;0;5;0;22058;2;0;0;0;0;0;6;0;16407;2;0;0;0;0;0;7;0;15931;0;0;0;0;8;0;15651;0;0;0;0;9;0;8314;0;0;0;0
24.01.18;19:40:00;1;302;8390;0;2;0;11508;0;0;0;0;3;0;7275;0;0;0;0;4;0;7872;0;0;0;0;5;0;22058;2;0;0;0;0;0;6;0;16407;2;0;0;0;0;0;7;0;15931;0;0;0;0;8;0;15651;0;0;0;0;9;0;8314;0;0;0;0
24.01.18;19:35:00;1;970;8363;0;2;0;11508;0;0;0;0;3;0;7275;0;0;0;0;4;0;7872;0;0;0;0;5;0;22058;2;0;0;0;0;0;6;0;16407;2;0;0;0;0;0;7;0;15931;0;0;0;0;8;0;15651;0;0;0;0;9;0;8314;0;0;0;0
24.01.18;19:30:00;1;596;8286;0;2;0;11508;0;0;0;0;3;0;7275;0;0;0;0;4;0;7872;0;0;0;0;5;0;22058;2;0;0;0;0;0;6;0;16407;2;0;0;0;0;0;7;0;15931;0;0;0;0;8;0;15651;0;0;0;0;9;0;8314;0;0;0;0
24.01.18;19:25:00;1;629;8237;0;2;0;11508;0;0;0;0;3;0;7275;0;0;0;0;4;0;7872;0;0;0;0;5;0;22058;2;0;0;0;0;0;6;0;16407;2;0;0;0;0;0;7;0;15931;0;0;0;0;8;0;15651;0;0;0;0;9;0;8314;0;0;0;0
24.01.18;19:20:00;1;938;8184;0;2;0;11508;0;0;0;0;3;0;7275;0;0;0;0;4;0;7872;0;0;0;0;5;0;22058;2;0;0;0;0;0;6;0;16407;2;0;0;0;0;0;7;0;15931;0;0;0;0;8;0;15651;0;0;0;0;9;0;8314;0;0;0;0
24.01.18;19:15:00;1;436;8111;0;2;0;11508;0;0;0;0;3;0;7275;0;0;0;0;4;0;7872;0;0;0;0;5;0;22058;2;0;0;0;0;0;6;0;16407;2;0;0;0;0;0;7;0;15931;0;0;0;0;8;0;15651;0;0;0;0;9;0;8314;0;0;0;0
24.01.18;19:10:00;1;507;8078;0;2;0;11508;0;0;0;0;3;0;7275;0;0;0;0;4;0;7872;0;0;0;0;5;0;22058;2;0;0;0;0;0;6;0;16407;2;0;0;0;0;0;7;0;15931;0;0;0;0;8;0;15651;0;0;0;0;9;0;8314;0;0;0;0
24.01.18;19:05:00;1;851;8017;0;2;0;11508;0;0;0;0;3;0;7275;0;0;0;0;4;0;7872;0;0;0;0;5;0;22058;2;0;0;0;0;0;6;0;16407;2;0;0;0;0;0;7;0;15931;0;0;0;0;8;0;15651;0;0;0;0;9;0;8314;0;0;0;0
24.01.18;19:00:00;1;187;7967;0;2;0;11508;0;0;0;0;3;0;7275;0;0;0;0;4;0;7872;0;0;0;0;5;0;22058;2;0;0;0;0;0;6;0;16407;2;0;0;0;0;0;7;0;15931;0;0;0;0;8;0;15651;0;0;0;0;9;0;8314;0;0;0;0
24.01.18;18:55:00;1;187;7951;0;2;0;11508;0;0;0;0;3;0;7275;0;0;0;0;4;0;7872;0;0;0;0;5;0;22058;2;0;0;0;0;0;6;0;16407;2;0;0;0;0;0;7;0;15931;0;0;0;0;8;0;15651;0;0;0;0;9;0;8314;0;0;0;0
24.01.18;18:50:00;1;574;7935;0;2;0;11508;0;0;0;0;3;0;7275;0;0;0;0;4;0;7872;0;0;0;0;5;0;22058;2;0;0;0;0;0;6;0;16407;2;0;0;0;0;0;7;0;15931;0;0;0;0;8;0;15651;0;0;0;0;9;0;8314;0;0;0;0
24.01.18;18:45:00;1;186;7891;0;2;0;11508;0;0;0;0;3;0;7275;0;0;0;0;4;0;7872;0;0;0;0;5;0;22058;2;0;0;0;0;0;6;0;16407;2;0;0;0;0;0;7;0;15931;0;0;0;0;8;0;15651;0;0;0;0;9;0;8314;0;0;0;0
24.01.18;18:40:00;1;218;7876;0;2;0;11508;0;0;0;0;3;0;7275;0;0;0;0;4;0;7872;0;0;0;0;5;0;22058;2;0;0;0;0;0;6;0;16407;2;0;0;0;0;0;7;0;15931;0;0;0;0;8;0;15651;0;0;0;0;9;0;8314;0;0;0;0
24.01.18;18:35:00;1;654;7857;0;2;0;11508;0;0;0;0;3;0;7275;0;0;0;0;4;0;7872;0;0;0;0;5;0;22058;2;0;0;0;0;0;6;0;16407;2;0;0;0;0;0;7;0;15931;0;0;0;0;8;0;15651;0;0;0;0;9;0;8314;0;0;0;0
24.01.18;18:30:00;1;231;7809;0;2;0;11508;0;0;0;0;3;0;7275;0;0;0;0;4;0;7872;0;0;0;0;5;0;22058;2;0;0;0;0;0;6;0;16407;2;0;0;0;0;0;7;0;15931;0;0;0;0;8;0;15651;0;0;0;0;9;0;8314;0;0;0;0
24.01.18;18:25:00;1;196;7789;0;2;0;11508;0;0;0;0;3;0;7275;0;0;0;0;4;0;7872;0;0;0;0;5;0;22058;2;0;0;0;0;0;6;0;16407;2;0;0;0;0;0;7;0;15931;0;0;0;0;8;0;15651;0;0;0;0;9;0;8314;0;0;0;0
24.01.18;18:20:00;1;538;7759;0;2;0;11508;0;0;0;0;3;0;7275;0;0;0;0;4;0;7872;0;0;0;0;5;0;22058;2;0;0;0;0;0;6;0;16407;2;0;0;0;0;0;7;0;15931;0;0;0;0;8;0;15651;0;0;0;0;9;0;8314;0;0;0;0
24.01.18;18:15:00;1;187;7728;0;2;0;11508;0;0;0;0;3;0;7275;0;0;0;0;4;0;7872;0;0;0;0;5;0;22058;2;0;0;0;0;0;6;0;16407;2;0;0;0;0;0;7;0;15931;0;0;0;0;8;0;15651;0;0;0;0;9;0;8314;0;0;0;0
24.01.18;18:10:00;1;395;7712;0;2;0;11508;0;0;0;0;3;0;7275;0;0;0;0;4;0;7872;0;0;0;0;5;0;22058;2;0;0;0;0;0;6;0;16407;2;0;0;0;0;0;7;0;15931;0;0;0;0;8;0;15651;0;0;0;0;9;0;8314;0;0;0;0
24.01.18;18:05:00;1;189;7668;0;2;0;11508;0;0;0;0;3;0;7275;0;0;0;0;4;0;7872;0;0;0;0;5;0;22058;2;0;0;0;0;0;6;0;16407;2;0;0;0;0;0;7;0;15931;0;0;0;0;8;0;15651;0;0;0;0;9;0;8314;0;0;0;0
24.01.18;18:00:00;1;188;7653;0;2;0;11508;0;0;0;0;3;0;7275;0;0;0;0;4;0;7872;0;0;0;0;5;0;22058;2;0;0;0;0;0;6;0;16407;2;0;0;0;0;0;7;0;15931;0;0;0;0;8;0;15651;0;0;0;0;9;0;8314;0;0;0;0
24.01.18;17:55:00;1;446;7637;0;2;0;11508;0;0;0;0;3;0;7275;0;0;0;0;4;0;7872;0;0;0;0;5;0;22058;2;0;0;0;0;0;6;0;16407;2;0;0;0;0;0;7;0;15931;0;0;0;0;8;0;15651;0;0;0;0;9;0;8314;0;0;0;0
24.01.18;17:50:00;1;228;7592;0;2;0;11508;0;0;0;0;3;0;7275;0;0;0;0;4;0;7872;0;0;0;0;5;0;22058;2;0;0;0;0;0;6;0;16407;2;0;0;0;0;0;7;0;15931;0;0;0;0;8;0;15651;0;0;0;0;9;0;8314;0;0;0;0
24.01.18;17:45:00;1;259;7573;0;2;0;11508;0;0;0;0;3;0;7275;0;0;0;0;4;0;7872;0;0;0;0;5;0;22058;2;0;0;0;0;0;6;0;16407;2;0;0;0;0;0;7;0;15931;0;0;0;0;8;0;15651;0;0;0;0;9;0;8314;0;0;0;0
24.01.18;17:40:00;1;761;7551;0;2;0;11508;0;0;0;0;3;0;7275;0;0;0;0;4;0;7872;0;0;0;0;5;0;22058;2;0;0;0;0;0;6;0;16407;2;0;0;0;0;0;7;0;15931;0;0;0;0;8;0;15651;0;0;0;0;9;0;8314;0;0;0;0
24.01.18;17:35:00;1;296;7498;0;2;0;11508;0;0;0;0;3;0;7275;0;0;0;0;4;0;7872;0;0;0;0;5;0;22058;2;0;0;0;0;0;6;0;16407;2;0;0;0;0;0;7;0;15931;0;0;0;0;8;0;15651;0;0;0;0;9;0;8314;0;0;0;0
24.01.18;17:30:00;1;313;7473;0;2;0;11508;0;0;0;0;3;0;7275;0;0;0;0;4;0;7872;0;0;0;0;5;0;22058;2;0;0;0;0;0;6;0;16407;2;0;0;0;0;0;7;0;15931;0;0;0;0;8;0;15651;0;0;0;0;9;0;8314;0;0;0;0
24.01.18;17:25:00;1;729;7446;0;2;0;11508;0;0;0;0;3;0;7275;0;0;0;0;4;0;7872;0;0;0;0;5;0;22058;2;0;0;0;0;0;6;0;16407;2;0;0;0;0;0;7;0;15931;0;0;0;0;8;0;15651;0;0;0;0;9;0;8314;0;0;0;0
24.01.18;17:20:00;1;338;7388;0;2;0;11508;0;0;0;0;3;0;7275;0;0;115;6;4;0;7872;0;0;0;0;5;0;22058;2;0;0;0;0;0;6;0;16407;2;0;0;0;0;0;7;0;15931;0;0;0;0;8;0;15651;0;0;0;0;9;0;8314;0;0;0;0
24.01.18;17:15:00;1;317;7360;0;2;0;11508;6;0;278;14;3;0;7275;6;0;310;16;4;0;7872;0;0;41;8;5;0;22058;2;0;0;0;0;0;6;0;16407;2;0;0;0;0;0;7;0;15931;0;0;0;0;8;0;15651;0;0;0;0;9;0;8314;0;0;0;0
24.01.18;17:10:00;1;1066;7333;0;2;0;11508;6;0;316;14;3;0;7275;6;0;379;16;4;0;7872;1;0;91;13;5;0;22058;2;0;0;0;0;0;6;0;16407;1;0;0;0;0;0;7;0;15931;0;0;0;0;8;0;15651;0;0;0;0;9;0;8314;0;0;0;0
24.01.18;17:05:00;1;1130;7240;0;2;0;11508;6;0;339;14;3;0;7275;6;2;390;17;4;0;7872;1;0;115;14;5;0;22058;2;0;1;237;275;24;6;0;16407;2;6;2;143;291;18;7;0;15931;0;0;155;10;8;0;15651;0;0;156;10;9;0;8314;0;0;217;10
24.01.18;17:00:00;1;1118;7152;0;2;0;11508;6;0;361;14;3;0;7275;6;3;419;17;4;0;7872;1;0;146;14;5;0;22058;23;0;0;382;388;25;6;0;16407;23;3;5;520;180;23;7;0;15931;6;0;302;18;8;0;15651;6;0;306;17;9;0;8314;6;0;317;13
24.01.18;16:55:00;1;1415;7046;0;2;0;11508;6;0;381;15;3;0;7275;6;2;457;17;4;0;7872;1;0;181;15;5;7;22058;26;0;0;398;572;25;6;0;16407;23;10;1;181;541;23;7;0;15931;6;0;366;18;8;0;15651;6;0;369;18;9;0;8314;6;0;387;13
24.01.18;16:50:00;1;2244;6944;0;2;0;11508;6;0;402;15;3;1;7275;6;3;488;17;4;0;7872;1;0;220;15;5;10;22057;26;0;1;416;658;25;6;0;16407;23;7;1;182;572;24;7;0;15931;6;1;421;18;8;1;15651;3;1;412;18;9;0;8314;3;2;439;14
24.01.18;16:45:00;1;1470;6765;0;2;2;11508;4;8;410;15;3;0;7275;6;6;508;17;4;0;7872;3;0;207;16;5;87;22056;4;17;20;379;605;26;6;17;16407;1;10;8;541;437;24;7;0;15931;6;7;459;19;8;3;15651;6;16;433;18;9;0;8314;6;4;501;14
24.01.18;16:40:00;1;256;6634;0;2;53;11507;4;85;355;16;3;8;7275;4;18;500;17;4;14;7872;3;15;199;16;5;129;22048;4;42;37;379;605;26;6;61;16405;4;32;16;443;210;25;7;24;15931;6;49;418;19;8;19;15651;6;34;432;19;9;1;8314;6;5;532;14
24.01.18;16:35:00;1;203;6613;0;2;88;11503;4;123;368;16;3;17;7274;3;31;516;17;4;31;7871;3;32;197;16;5;179;22037;4;73;61;379;605;27;6;84;16400;4;48;24;443;210;26;7;77;15929;4;103;420;20;8;66;15649;4;99;406;19;9;6;8314;6;10;544;15
24.01.18;16:30:00;1;500;6596;0;2;134;11496;4;171;375;17;3;73;7272;4;110;459;18;4;64;7869;3;67;198;17;5;235;22022;4;102;92;379;605;27;6;112;16393;4;85;43;443;210;26;7;123;15923;4;156;421;20;8;108;15644;4;143;399;20;9;15;8313;6;24;531;15
24.01.18;16:25:00;1;184;6552;0;2;182;11485;4;220;373;17;3;98;7266;4;143;501;18;4;108;7863;3;112;219;17;5;291;22002;4;129;114;379;605;27;6;141;16383;4;89;43;443;210;26;7;174;15913;4;207;418;21;8;158;15635;4;196;424;20;9;60;8312;6;83;498;16
24.01.18;16:20:00;1;185;6536;0;2;265;11470;4;309;394;18;3;145;7258;4;188;516;19;4;159;7855;5;166;234;17;5;376;21977;4;180;157;391;605;27;6;236;16371;4;109;111;451;412;26;7;260;15899;4;306;464;21;8;222;15622;4;262;452;21;9;94;8308;4;125;484;16
24.01.18;16:15:00;1;464;6521;0;2;370;11448;4;416;395;19;3;193;7246;4;238;547;19;4;211;7841;5;220;238;17;5;505;21945;4;243;204;406;622;27;6;374;16350;4;183;193;563;557;26;7;405;15877;4;453;456;21;8;306;15604;4;355;489;21;9;113;8300;4;149;514;17
24.01.18;16:10:00;1;185;6477;0;2;393;11417;4;441;406;19;3;218;7230;4;263;534;19;4;226;7824;5;235;241;18;5;546;21902;4;272;227;409;620;28;6;423;16318;4;212;229;568;560;26;7;486;15844;4;538;472;22;8;376;15578;4;428;484;21;9;127;8291;4;163;540;17
24.01.18;16:05:00;1;185;6462;0;2;340;11384;4;385;401;20;3;198;7212;4;244;507;20;4;214;7805;5;223;234;18;5;515;21857;4;253;214;412;641;28;6;396;16283;4;210;226;571;554;26;7;409;15803;4;450;465;22;8;355;15547;4;401;472;22;9;144;8280;4;179;522;18
24.01.18;16:00:00;1;495;6446;0;2;462;11356;4;507;386;21;3;246;7195;4;286;425;20;4;270;7787;5;281;238;18;5;672;21814;4;332;279;415;648;28;6;502;16250;4;234;241;580;565;26;7;544;15769;4;594;483;23;8;454;15517;4;502;472;22;9;164;8268;4;196;485;18
24.01.18;15:55:00;1;194;6401;0;2;588;11318;4;642;384;22;3;319;7175;4;362;423;21;4;317;7765;5;330;245;19;5;863;21756;4;425;361;420;659;28;6;654;16207;4;323;334;578;566;27;7;734;15724;4;786;475;23;8;609;15480;4;665;452;23;9;177;8255;4;206;388;19
24.01.18;15:50:00;1;230;6385;0;2;716;11268;4;774;381;23;3;388;7148;4;436;430;21;4;381;7739;5;397;243;19;5;1048;21683;4;528;445;419;673;29;6;784;16152;4;409;413;588;568;27;7;892;15663;4;956;483;24;8;770;15429;4;821;465;24;9;249;8240;4;279;354;19
24.01.18;15:45:00;1;597;6365;0;2;1418;11209;4;1502;392;24;3;782;7116;4;843;431;22;4;550;7707;5;573;250;19;5;1926;21593;4;993;833;430;704;29;6;1453;16084;4;736;728;604;579;27;7;1780;15589;4;1871;507;24;8;1718;15366;4;1804;468;24;9;571;8219;4;614;370;20
24.01.18;15:40:00;1;284;6315;0;2;1756;11094;4;1854;396;25;3;983;7053;4;1051;439;22;4;659;7662;5;687;253;19;5;2427;21429;4;1288;1066;430;702;29;6;1852;15960;4;977;963;608;581;27;7;2422;15445;4;2544;481;25;8;2306;15228;4;2418;474;24;9;900;8173;4;952;393;21
24.01.18;15:35:00;1;253;6291;0;2;1676;10948;4;1768;389;25;3;939;6971;4;1004;427;23;4;690;7607;5;718;255;20;5;2434;21223;4;1290;1065;438;704;29;6;1866;15803;4;951;945;608;585;27;7;2497;15244;4;2618;477;25;8;2451;15036;4;2574;494;25;9;1015;8099;4;1075;432;22
24.01.18;15:30:00;1;519;6270;0;2;1598;10810;4;1688;386;26;3;894;6893;4;955;431;23;4;712;7550;5;741;255;20;5;2356;21024;4;1244;1034;427;702;29;6;1774;15651;4;916;907;606;579;27;7;2193;15038;4;2307;484;25;8;2154;14833;4;2264;482;25;9;983;8015;4;1051;488;23
24.01.18;15:25:00;1;254;6219;0;2;1866;10677;4;1964;390;26;3;1048;6819;4;1117;429;23;4;772;7491;5;804;251;20;5;2789;20826;4;1494;1227;435;698;29;6;2118;15501;4;1095;1077;607;583;27;7;2630;14855;4;2765;482;26;8;2569;14654;4;2696;486;25;9;1261;7933;4;1341;494;23
24.01.18;15:20:00;1;253;6198;0;2;1856;10523;4;1956;395;27;3;1042;6732;4;1109;434;24;4;786;7427;5;819;255;20;5;2839;20594;4;1514;1230;438;695;30;6;2159;15324;4;1117;1101;607;587;27;7;2613;14639;4;2740;478;26;8;2639;14441;4;2769;482;25;9;1307;7829;4;1392;515;24
24.01.18;15:15:00;1;505;6177;0;2;1848;10368;4;1952;413;27;3;1004;6645;4;1073;443;24;4;774;7361;5;806;252;20;5;2731;20358;4;1453;1196;435;701;30;6;2081;15143;4;1066;1056;606;583;27;7;2529;14421;4;2652;466;26;8;2427;14220;4;2548;475;26;9;1296;7720;4;1378;521;24
24.01.18;15:10:00;1;189;6126;0;2;1954;10213;4;2066;413;28;3;1115;6561;4;1189;478;25;4;800;7296;5;833;252;21;5;2899;20129;4;1538;1268;435;691;30;6;2208;14968;4;1132;1109;599;582;28;7;2678;14209;4;2815;483;26;8;2648;14016;4;2774;478;26;9;1420;7611;4;1510;534;25
24.01.18;15:05:00;1;190;6110;0;2;2299;10050;4;2425;418;29;3;1389;6469;4;1477;480;25;4;876;7230;5;912;258;21;5;3480;19884;4;1878;1539;437;699;30;6;2647;14783;4;1359;1332;606;582;28;7;3013;13986;4;3155;487;27;8;2841;13796;4;2977;463;26;9;1612;7493;4;1714;529;25
24.01.18;15:00:00;1;438;6094;0;2;2342;9860;4;2469;414;29;3;1461;6354;4;1556;514;26;4;898;7157;5;936;248;21;5;3544;19598;4;1911;1567;433;702;30;6;2705;14564;4;1402;1378;599;578;28;7;3292;13739;4;3443;475;27;8;3225;13560;4;3374;486;27;9;1765;7361;4;1870;535;25
24.01.18;14:55:00;1;232;6049;0;2;2407;9665;4;2539;411;30;3;1527;6233;4;1625;523;26;4;884;7082;5;921;250;21;5;3638;19301;4;1953;1611;432;690;31;6;2784;14337;4;1428;1416;602;584;28;7;3153;13463;4;3298;480;27;8;3148;13289;4;3295;473;27;9;1703;7213;4;1806;537;26
24.01.18;14:50:00;1;234;6030;0;2;2515;9465;4;2654;410;30;3;1622;6106;4;1723;520;26;4;934;7009;5;973;241;21;5;3690;18989;4;1969;1635;434;692;31;6;3049;14100;4;1564;1537;600;579;28;7;3531;13202;4;3700;482;27;8;3265;13026;4;3423;475;27;9;1610;7072;4;1711;532;26
24.01.18;14:45:00;1;509;6010;0;2;2811;9256;4;2957;408;31;3;1815;5971;4;1923;517;26;4;1001;6931;5;1043;243;22;5;4531;18658;4;2456;2019;425;690;31;6;3450;13847;4;1783;1736;599;576;28;7;4012;12907;4;4196;468;28;8;3832;12753;4;4004;469;27;9;2042;6936;4;2158;515;26
24.01.18;14:40:00;1;188;5963;0;2;2783;9022;4;2930;406;30;3;1761;5820;4;1869;528;26;4;1017;6848;5;1059;240;22;5;4590;18279;4;2496;2033;432;690;31;6;3501;13558;4;1812;1775;600;577;28;7;3628;12575;4;3802;494;28;8;3565;12436;4;3728;469;27;9;1788;6771;4;1893;528;26
24.01.18;14:35:00;1;187;5947;0;2;2848;8790;4;2998;403;31;3;1808;5673;4;1917;514;26;4;966;6763;5;1006;239;22;5;4457;17900;4;2404;1990;428;685;31;6;3145;13267;4;1648;1610;594;576;28;7;3646;12273;4;3825;475;28;8;3828;12140;4;4005;465;27;9;2198;6622;4;2328;529;27
24.01.18;14:30:00;1;889;5932;0;2;2965;8553;4;3122;402;31;3;1921;5522;4;2036;517;26;4;1122;6683;5;1169;235;23;5;5017;17525;4;2735;2238;430;687;31;6;3821;12983;4;1973;1910;596;578;28;7;3608;11963;4;3791;476;28;8;4214;11816;4;4419;481;27;9;2194;6436;4;2325;553;27
24.01.18;14:25:00;1;187;5888;0;2;2727;8305;4;2876;406;31;3;1787;5362;4;1894;505;26;4;1159;6589;5;1207;231;23;5;4829;17106;4;2622;2159;427;688;31;6;3678;12665;4;1911;1862;597;569;28;7;3452;11658;4;3609;470;28;8;3405;11468;4;3571;477;28;9;1820;6254;4;1946;514;27
24.01.18;14:20:00;1;187;5872;0;2;3014;8078;4;3175;406;31;3;1945;5214;4;2063;518;26;4;1284;6493;5;1337;231;23;5;5185;16705;4;2830;2304;427;684;31;6;4003;12360;4;2073;2026;597;581;28;7;4334;11359;4;4543;461;28;8;3980;11170;4;4170;469;27;9;2342;6094;4;2470;522;27
24.01.18;14:15:00;1;457;5856;0;2;2970;7827;4;3127;404;31;3;1907;5052;4;2017;517;26;4;1335;6386;5;1390;216;23;5;5228;16264;4;2855;2331;432;684;31;6;4016;12024;4;2085;2022;595;579;28;7;4502;10998;4;4715;458;28;8;4432;10837;4;4641;470;27;9;2402;5899;4;2539;519;27